This is the latest recevied weather packets stored in our database for station/object KG7DQI-13. If no packets are shown the sender has not sent any weather packets the latest 1 day(s).
| Time | Temp. | Humidity | Pressure | Rain* | Wind** | Luminosity | Snow |
|---|---|---|---|---|---|---|---|
| 1836274242 | 17.78° C | 54% | 913.3 hPa | 0 mm | 0 m/s | 0 W/m² | - |
| 1836274106 | 18.89° C | 53% | 913.1 hPa | 0 mm | 0 m/s | 0 W/m² | - |
| 1778058251 | 11.11° C | 81% | 914.8 hPa | 0 mm | 0 m/s | 0 W/m² | - |
| 1778057305 | 10.56° C | 82% | 914.8 hPa | 0 mm | 0 m/s | 0 W/m² | - |
| 1778056361 | 11.11° C | 78% | 914.7 hPa | 0 mm | 0 m/s | 0 W/m² | - |
| 1778055471 | 11.11° C | 79% | 914.6 hPa | 0 mm | 0 m/s | 0 W/m² | - |
| 1778054577 | 11.67° C | 78% | 914.6 hPa | 0 mm | 0 m/s | 0 W/m² | - |
| 1778053660 | 12.22° C | 76% | 914.4 hPa | 0 mm | 0 m/s | 0 W/m² | - |
| 1778052742 | 12.78° C | 74% | 914.2 hPa | 0 mm | 0 m/s | 0 W/m² | - |
| 1778051870 | 12.78° C | 74% | 914.2 hPa | 0 mm | 0 m/s | 0 W/m² | - |
| 1778051004 | 13.33° C | 72% | 914.1 hPa | 0 mm | 0 m/s | 0 W/m² | - |
| 1778050062 | 13.89° C | 69% | 914 hPa | 0 mm | 0 m/s | 0 W/m² | - |
| 1778049171 | 15° C | 67% | 913.9 hPa | 0 mm | 0 m/s | 0 W/m² | - |
| 1778048296 | 16.11° C | 65% | 913.9 hPa | 0 mm | 0 m/s | 0 W/m² | - |
| 1778047400 | 16.11° C | 65% | 914.2 hPa | 0 mm | 0 m/s | 0 W/m² | - |
| 1778046508 | 16.67° C | 64% | 913.6 hPa | 0 mm | 0 m/s | 0 W/m² | - |
| 1778045559 | 17.22° C | 62% | 913.5 hPa | 0 mm | 0 m/s | 0 W/m² | - |
| 1778044640 | 18.33° C | 59% | 913.2 hPa | 0 mm | 0.45 m/s, 227° | 0 W/m² | - |
| 1778043735 | 18.33° C | 59% | 913.1 hPa | 0 mm | 0 m/s | 0 W/m² | - |
| 1778042855 | 18.89° C | 58% | 913.1 hPa | 0 mm | 0 m/s | 0 W/m² | - |
| 1778041905 | 19.44° C | 58% | 912.9 hPa | 0 mm | 0.45 m/s, 210° | 0 W/m² | - |
| 1778041016 | 20° C | 57% | 912.9 hPa | 0 mm | 0 m/s | 0 W/m² | - |
| 1778040104 | 20° C | 56% | 912.5 hPa | 0 mm | 0 m/s | 0 W/m² | - |
| 1778039185 | 20° C | 52% | 912.3 hPa | 0 mm | 0 m/s | 0 W/m² | - |
| 1778038257 | 20.56° C | 48% | 912.1 hPa | 0 mm | 0 m/s | 0 W/m² | - |
* Rain latest hour (hover to see other rain measurements)
** Current wind speed in m/s (hover to see current wind gust speed)